| time (UTC) | temp F | wind direction | speed MPH | gust MPH | rain 1hr in | rain 24hr in | rain mn in | humidity % | barometer mb |
| 20260831154041 | 67 | 360 | 1.0 | 4.0 | 0.00 | 0.00 | 0.00 | 55 | 1018.4 |
| 20260831153546 | 67 | 360 | 1.0 | 4.0 | 0.00 | 0.00 | 0.00 | 54 | 1018.3 |
| 20260831153115 | 67 | 360 | 1.0 | 4.0 | 0.00 | 0.00 | 0.00 | 54 | 1018.4 |
| 20260831152541 | 67 | 360 | 2.0 | 4.0 | 0.00 | 0.00 | 0.00 | 54 | 1018.4 |
| 20260831152044 | 67 | 360 | 2.0 | 4.0 | 0.00 | 0.00 | 0.00 | 55 | 1018.4 |
| 20260831151612 | 67 | 360 | 1.0 | 3.0 | 0.00 | 0.00 | 0.00 | 56 | 1018.6 |
| 20260831151043 | 67 | 360 | 1.0 | 3.0 | 0.00 | 0.00 | 0.00 | 56 | 1018.6 |
| 20260831150545 | 67 | 360 | 1.0 | 3.0 | 0.00 | 0.00 | 0.00 | 56 | 1018.6 |
| 20260831150101 | 67 | 360 | 0.0 | 3.0 | 0.00 | 0.00 | 0.00 | 56 | 1018.7 |
| 20260831145543 | 67 | 360 | 1.0 | 3.0 | 0.00 | 0.00 | 0.00 | 56 | 1018.8 |
| 20260831145042 | 67 | 360 | 0.0 | 2.0 | 0.00 | 0.00 | 0.00 | 56 | 1018.9 |
| 20260831144601 | 67 | 0 | 0.0 | 2.0 | 0.00 | 0.00 | 0.00 | 55 | 1018.8 |
| 20260831144042 | 67 | 360 | 0.0 | 2.0 | 0.00 | 0.00 | 0.00 | 54 | 1018.8 |
| 20260831143542 | 68 | 360 | 0.0 | 2.0 | 0.00 | 0.00 | 0.00 | 54 | 1018.7 |
| 20260831143058 | 68 | 360 | 0.0 | 2.0 | 0.00 | 0.00 | 0.00 | 53 | 1018.8 |
| 20260831142542 | 68 | 0 | 0.0 | 2.0 | 0.00 | 0.00 | 0.00 | 53 | 1018.8 |
| 20260831142041 | 68 | 0 | 0.0 | 3.0 | 0.00 | 0.00 | 0.00 | 52 | 1018.9 |
| 20260831141604 | 69 | 360 | 1.0 | 3.0 | 0.00 | 0.00 | 0.00 | 52 | 1018.9 |
| 20260831141043 | 69 | 360 | 1.0 | 3.0 | 0.00 | 0.00 | 0.00 | 51 | 1019.1 |
| 20260831140545 | 69 | 360 | 1.0 | 3.0 | 0.00 | 0.00 | 0.00 | 51 | 1019.1 |
| 20260831140056 | 69 | 360 | 1.0 | 3.0 | 0.00 | 0.00 | 0.00 | 50 | 1019.1 |
| 20260831135543 | 70 | 0 | 0.0 | 4.0 | 0.00 | 0.00 | 0.00 | 50 | 1019.1 |
| 20260831135044 | 70 | 360 | 1.0 | 4.0 | 0.00 | 0.00 | 0.00 | 49 | 1019.2 |
| 20260831134614 | 70 | 360 | 1.0 | 4.0 | 0.00 | 0.00 | 0.00 | 49 | 1019.1 |
| 20260831134043 | 70 | 360 | 1.0 | 3.0 | 0.00 | 0.00 | 0.00 | 48 | 1019.1 |
| 20260831133543 | 70 | 360 | 1.0 | 4.0 | 0.00 | 0.00 | 0.00 | 48 | 1019.2 |
| 20260831133107 | 71 | 360 | 1.0 | 4.0 | 0.00 | 0.00 | 0.00 | 48 | 1019.3 |
| 20260831132545 | 71 | 360 | 2.0 | 4.0 | 0.00 | 0.00 | 0.00 | 47 | 1019.3 |
| 20260831132122 | 71 | 360 | 1.0 | 4.0 | 0.00 | 0.00 | 0.00 | 47 | 1019.3 |
| 20260831131601 | 71 | 360 | 1.0 | 4.0 | 0.00 | 0.00 | 0.00 | 47 | 1019.4 |
| 20260831131040 | 71 | 360 | 1.0 | 3.0 | 0.00 | 0.00 | 0.00 | 47 | 1019.4 |
| 20260831130540 | 71 | 360 | 1.0 | 2.0 | 0.00 | 0.00 | 0.00 | 47 | 1019.3 |
| 20260831130057 | 71 | 360 | 1.0 | 3.0 | 0.00 | 0.00 | 0.00 | 47 | 1019.4 |
| 20260831125541 | 71 | 360 | 1.0 | 3.0 | 0.00 | 0.00 | 0.00 | 46 | 1019.5 |
| 20260831125041 | 72 | 360 | 1.0 | 3.0 | 0.00 | 0.00 | 0.00 | 46 | 1019.6 |
| 20260831124553 | 72 | 360 | 2.0 | 3.0 | 0.00 | 0.00 | 0.00 | 45 | 1019.5 |
| 20260831124045 | 72 | 360 | 1.0 | 3.0 | 0.00 | 0.00 | 0.00 | 45 | 1019.5 |
| 20260831123540 | 72 | 360 | 1.0 | 3.0 | 0.00 | 0.00 | 0.00 | 45 | 1019.5 |
| 20260831123103 | 72 | 360 | 1.0 | 3.0 | 0.00 | 0.00 | 0.00 | 44 | 1019.5 |
| 20260831122546 | 72 | 360 | 1.0 | 3.0 | 0.00 | 0.00 | 0.00 | 44 | 1019.5 |
| 20260831122040 | 72 | 360 | 1.0 | 3.0 | 0.00 | 0.00 | 0.00 | 45 | 1019.6 |
| 20260831121632 | 72 | 360 | 1.0 | 3.0 | 0.00 | 0.00 | 0.00 | 45 | 1019.5 |
| 20260831121041 | 72 | 360 | 0.0 | 2.0 | 0.00 | 0.00 | 0.00 | 45 | 1019.5 |
| 20260831120543 | 73 | 360 | 0.0 | 3.0 | 0.00 | 0.00 | 0.00 | 45 | 1019.5 |
| 20260831115540 | 73 | 360 | 1.0 | 3.0 | 0.00 | 0.00 | 0.00 | 44 | 1019.7 |
| 20260831115040 | 73 | 360 | 1.0 | 3.0 | 0.00 | 0.00 | 0.00 | 44 | 1019.7 |
| 20260831114604 | 73 | 360 | 1.0 | 3.0 | 0.00 | 0.00 | 0.00 | 44 | 1019.6 |
| 20260831114041 | 73 | 360 | 1.0 | 3.0 | 0.00 | 0.00 | 0.00 | 44 | 1019.6 |
| 20260831113541 | 73 | 360 | 1.0 | 3.0 | 0.00 | 0.00 | 0.00 | 44 | 1019.7 |
| 20260831113109 | 73 | 360 | 1.0 | 3.0 | 0.00 | 0.00 | 0.00 | 45 | 1019.7 |
| 20260831112546 | 73 | 360 | 1.0 | 2.0 | 0.00 | 0.00 | 0.00 | 45 | 1019.7 |
| 20260831112040 | 73 | 360 | 1.0 | 2.0 | 0.00 | 0.00 | 0.00 | 45 | 1019.6 |
| 20260831111556 | 73 | 360 | 1.0 | 2.0 | 0.00 | 0.00 | 0.00 | 45 | 1019.7 |
| 20260831111041 | 73 | 360 | 0.0 | 2.0 | 0.00 | 0.00 | 0.00 | 45 | 1019.7 |
| 20260831110542 | 73 | 360 | 1.0 | 2.0 | 0.00 | 0.00 | 0.00 | 45 | 1019.6 |
| 20260831110101 | 73 | 0 | 0.0 | 2.0 | 0.00 | 0.00 | 0.00 | 45 | 1019.6 |
| 20260831105543 | 73 | 360 | 0.0 | 2.0 | 0.00 | 0.00 | 0.00 | 46 | 1019.5 |
| 20260831105041 | 73 | 360 | 0.0 | 1.0 | 0.00 | 0.00 | 0.00 | 46 | 1019.5 |
| 20260831104604 | 74 | 0 | 0.0 | 0.0 | 0.00 | 0.00 | 0.00 | 46 | 1019.4 |
| 20260831104041 | 74 | 0 | 0.0 | 0.0 | 0.00 | 0.00 | 0.00 | 45 | 1019.4 |
| 20260831103541 | 74 | 0 | 0.0 | 0.0 | 0.00 | 0.00 | 0.00 | 45 | 1019.4 |
| 20260831103110 | 74 | 0 | 0.0 | 1.0 | 0.00 | 0.00 | 0.00 | 45 | 1019.4 |
| 20260831102542 | 75 | 0 | 0.0 | 1.0 | 0.00 | 0.00 | 0.00 | 44 | 1019.3 |
| 20260831102041 | 75 | 0 | 0.0 | 0.0 | 0.00 | 0.00 | 0.00 | 43 | 1019.2 |
| 20260831101601 | 75 | 0 | 0.0 | 2.0 | 0.00 | 0.00 | 0.00 | 44 | 1019.1 |
| 20260831101039 | 76 | 0 | 0.0 | 2.0 | 0.00 | 0.00 | 0.00 | 43 | 1019.1 |
| 20260831100544 | 76 | 0 | 0.0 | 2.0 | 0.00 | 0.00 | 0.00 | 43 | 1019.1 |
| 20260831095542 | 77 | 327 | 0.0 | 3.0 | 0.00 | 0.00 | 0.00 | 42 | 1019.0 |
| 20260831095042 | 77 | 327 | 0.0 | 4.0 | 0.00 | 0.00 | 0.00 | 41 | 1018.9 |
| 20260831094607 | 77 | 327 | 1.0 | 4.0 | 0.00 | 0.00 | 0.00 | 40 | 1019.0 |
| 20260831094044 | 78 | 327 | 1.0 | 4.0 | 0.00 | 0.00 | 0.00 | 39 | 1018.9 |
| 20260831093543 | 78 | 336 | 1.0 | 4.0 | 0.00 | 0.00 | 0.00 | 38 | 1018.8 |
| 20260831093152 | 79 | 355 | 0.0 | 4.0 | 0.00 | 0.00 | 0.00 | 38 | 1018.8 |
| 20260831092542 | 79 | 355 | 1.0 | 5.0 | 0.00 | 0.00 | 0.00 | 37 | 1018.8 |
| 20260831092042 | 80 | 320 | 1.0 | 5.0 | 0.00 | 0.00 | 0.00 | 37 | 1018.7 |
| 20260831091558 | 80 | 355 | 1.0 | 5.0 | 0.00 | 0.00 | 0.00 | 36 | 1018.7 |
| 20260831091044 | 80 | 330 | 1.0 | 5.0 | 0.00 | 0.00 | 0.00 | 35 | 1018.6 |
| 20260831090542 | 81 | 327 | 2.0 | 5.0 | 0.00 | 0.00 | 0.00 | 35 | 1018.7 |
| 20260831090100 | 81 | 327 | 1.0 | 6.0 | 0.00 | 0.00 | 0.00 | 34 | 1018.8 |
| 20260831085542 | 81 | 0 | 1.0 | 6.0 | 0.00 | 0.00 | 0.00 | 33 | 1018.7 |
| 20260831085042 | 82 | 338 | 1.0 | 5.0 | 0.00 | 0.00 | 0.00 | 33 | 1018.8 |
| 20260831084652 | 82 | 344 | 1.0 | 5.0 | 0.00 | 0.00 | 0.00 | 32 | 1018.7 |
| 20260831084041 | 82 | 334 | 1.0 | 4.0 | 0.00 | 0.00 | 0.00 | 31 | 1018.7 |
| 20260831083542 | 83 | 0 | 1.0 | 5.0 | 0.00 | 0.00 | 0.00 | 30 | 1018.8 |
| 20260831083107 | 83 | 333 | 1.0 | 8.0 | 0.00 | 0.00 | 0.00 | 30 | 1018.8 |
| 20260831082544 | 84 | 351 | 1.0 | 8.0 | 0.00 | 0.00 | 0.00 | 29 | 1018.8 |
| 20260831082044 | 84 | 337 | 1.0 | 7.0 | 0.00 | 0.00 | 0.00 | 29 | 1018.7 |
| 20260831081555 | 85 | 0 | 1.0 | 7.0 | 0.00 | 0.00 | 0.00 | 27 | 1018.7 |
| 20260831081041 | 86 | 259 | 1.0 | 7.0 | 0.00 | 0.00 | 0.00 | 26 | 1018.7 |
| 20260831080541 | 86 | 313 | 2.0 | 8.0 | 0.00 | 0.00 | 0.00 | 26 | 1018.8 |
| 20260831080122 | 87 | 324 | 2.0 | 8.0 | 0.00 | 0.00 | 0.00 | 25 | 1018.8 |
| 20260831075541 | 87 | 318 | 2.0 | 7.0 | 0.00 | 0.00 | 0.00 | 26 | 1018.8 |
| 20260831075042 | 87 | 292 | 1.0 | 8.0 | 0.00 | 0.00 | 0.00 | 25 | 1018.8 |
| 20260831074602 | 87 | 307 | 2.0 | 8.0 | 0.00 | 0.00 | 0.00 | 26 | 1018.8 |
| 20260831074044 | 87 | 338 | 2.0 | 13.0 | 0.00 | 0.00 | 0.00 | 27 | 1018.8 |
| 20260831073544 | 86 | 302 | 2.0 | 13.0 | 0.00 | 0.00 | 0.00 | 26 | 1018.8 |
| 20260831073058 | 86 | 309 | 3.0 | 13.0 | 0.00 | 0.00 | 0.00 | 26 | 1018.8 |
| 20260831072547 | 86 | 355 | 2.0 | 6.0 | 0.00 | 0.00 | 0.00 | 26 | 1018.8 |
| 20260831072043 | 87 | 313 | 2.0 | 6.0 | 0.00 | 0.00 | 0.00 | 27 | 1018.8 |
| 20260831071612 | 88 | 360 | 3.0 | 6.0 | 0.00 | 0.00 | 0.00 | 25 | 1018.9 |
| 20260831071045 | 88 | 360 | 1.0 | 9.0 | 0.00 | 0.00 | 0.00 | 25 | 1018.9 |
| 20260831070542 | 88 | 360 | 2.0 | 9.0 | 0.00 | 0.00 | 0.00 | 25 | 1019.1 |
| 20260831070107 | 88 | 360 | 3.0 | 9.0 | 0.00 | 0.00 | 0.00 | 25 | 1019.0 |
| 20260831065545 | 88 | 360 | 2.0 | 11.0 | 0.00 | 0.00 | 0.00 | 26 | 1019.0 |
| 20260831065156 | 88 | 360 | 3.0 | 11.0 | 0.00 | 0.00 | 0.00 | 26 | 1019.1 |
| 20260831064604 | 87 | 360 | 1.0 | 9.0 | 0.00 | 0.00 | 0.00 | 26 | 1019.1 |
| 20260831064041 | 87 | 360 | 2.0 | 12.0 | 0.00 | 0.00 | 0.00 | 27 | 1019.2 |
| 20260831063542 | 87 | 360 | 3.0 | 12.0 | 0.00 | 0.00 | 0.00 | 26 | 1019.1 |
| 20260831063112 | 88 | 360 | 2.0 | 11.0 | 0.00 | 0.00 | 0.00 | 26 | 1019.2 |
| 20260831062543 | 88 | 360 | 2.0 | 9.0 | 0.00 | 0.00 | 0.00 | 26 | 1019.3 |
| 20260831062043 | 88 | 360 | 2.0 | 9.0 | 0.00 | 0.00 | 0.00 | 27 | 1019.3 |
| 20260831061600 | 88 | 360 | 2.0 | 10.0 | 0.00 | 0.00 | 0.00 | 27 | 1019.3 |
| 20260831061043 | 88 | 360 | 2.0 | 10.0 | 0.00 | 0.00 | 0.00 | 28 | 1019.5 |
| 20260831060541 | 88 | 360 | 2.0 | 10.0 | 0.00 | 0.00 | 0.00 | 27 | 1019.4 |
| 20260831060115 | 87 | 360 | 2.0 | 9.0 | 0.00 | 0.00 | 0.00 | 27 | 1019.5 |
| 20260831055541 | 87 | 360 | 3.0 | 9.0 | 0.00 | 0.00 | 0.00 | 27 | 1019.5 |
| 20260831055043 | 87 | 360 | 3.0 | 9.0 | 0.00 | 0.00 | 0.00 | 28 | 1019.6 |
| 20260831054604 | 87 | 360 | 3.0 | 9.0 | 0.00 | 0.00 | 0.00 | 27 | 1019.7 |
| 20260831054044 | 87 | 360 | 3.0 | 12.0 | 0.00 | 0.00 | 0.00 | 27 | 1019.6 |
| 20260831053541 | 87 | 360 | 3.0 | 12.0 | 0.00 | 0.00 | 0.00 | 28 | 1019.7 |
| 20260831053106 | 87 | 360 | 1.0 | 10.0 | 0.00 | 0.00 | 0.00 | 29 | 1019.7 |
| 20260831052544 | 87 | 360 | 2.0 | 10.0 | 0.00 | 0.00 | 0.00 | 28 | 1019.9 |
| 20260831052047 | 87 | 360 | 3.0 | 9.0 | 0.00 | 0.00 | 0.00 | 28 | 1019.9 |
| 20260831051602 | 87 | 294 | 3.0 | 9.0 | 0.00 | 0.00 | 0.00 | 27 | 1020.0 |
| 20260831051043 | 87 | 297 | 3.0 | 9.0 | 0.00 | 0.00 | 0.00 | 28 | 1020.0 |
| 20260831050541 | 87 | 315 | 3.0 | 12.0 | 0.00 | 0.00 | 0.00 | 29 | 1020.1 |
| 20260831050112 | 87 | 338 | 4.0 | 12.0 | 0.00 | 0.00 | 0.00 | 28 | 1020.2 |
| 20260831045543 | 87 | 319 | 2.0 | 8.0 | 0.00 | 0.00 | 0.00 | 29 | 1020.2 |
| 20260831045044 | 86 | 348 | 2.0 | 12.0 | 0.00 | 0.00 | 0.00 | 30 | 1020.3 |
| 20260831044604 | 86 | 331 | 4.0 | 12.0 | 0.00 | 0.00 | 0.00 | 29 | 1020.4 |
| 20260831044046 | 86 | 290 | 3.0 | 10.0 | 0.00 | 0.00 | 0.00 | 30 | 1020.5 |
| 20260831043542 | 86 | 15 | 2.0 | 10.0 | 0.00 | 0.00 | 0.00 | 31 | 1020.7 |
| 20260831043104 | 85 | 352 | 2.0 | 7.0 | 0.00 | 0.00 | 0.00 | 31 | 1020.6 |
| 20260831042544 | 85 | 22 | 1.0 | 6.0 | 0.00 | 0.00 | 0.00 | 33 | 1020.7 |
| 20260831042044 | 85 | 360 | 2.0 | 9.0 | 0.00 | 0.00 | 0.00 | 32 | 1020.6 |
| 20260831041559 | 84 | 360 | 4.0 | 9.0 | 0.00 | 0.00 | 0.00 | 32 | 1020.8 |
| 20260831041044 | 84 | 46 | 2.0 | 9.0 | 0.00 | 0.00 | 0.00 | 33 | 1021.0 |
| 20260831040544 | 84 | 360 | 3.0 | 9.0 | 0.00 | 0.00 | 0.00 | 33 | 1021.1 |
| 20260831040133 | 84 | 338 | 2.0 | 8.0 | 0.00 | 0.00 | 0.00 | 33 | 1021.2 |
| 20260831035540 | 84 | 235 | 2.0 | 8.0 | 0.00 | 0.00 | 0.00 | 34 | 1021.4 |
| 20260831035044 | 83 | 0 | 3.0 | 8.0 | 0.00 | 0.00 | 0.00 | 35 | 1021.6 |
| 20260831034612 | 82 | 360 | 2.0 | 9.0 | 0.00 | 0.00 | 0.00 | 34 | 1021.6 |
| 20260831034045 | 82 | 360 | 2.0 | 9.0 | 0.00 | 0.00 | 0.00 | 36 | 1021.8 |
| 20260831033621 | 82 | 360 | 2.0 | 7.0 | 0.00 | 0.00 | 0.00 | 38 | 1021.9 |
| 20260831033103 | 81 | 360 | 3.0 | 8.0 | 0.00 | 0.00 | 0.00 | 38 | 1022.1 |
| 20260831032544 | 81 | 319 | 2.0 | 8.0 | 0.00 | 0.00 | 0.00 | 36 | 1022.1 |
| 20260831032043 | 82 | 289 | 3.0 | 8.0 | 0.00 | 0.00 | 0.00 | 37 | 1022.2 |
| 20260831031558 | 81 | 330 | 2.0 | 7.0 | 0.00 | 0.00 | 0.00 | 38 | 1022.2 |
| 20260831031048 | 80 | 341 | 2.0 | 8.0 | 0.00 | 0.00 | 0.00 | 38 | 1022.3 |
| 20260831030544 | 79 | 360 | 2.0 | 9.0 | 0.00 | 0.00 | 0.00 | 39 | 1022.5 |
| 20260831030057 | 79 | 323 | 3.0 | 9.0 | 0.00 | 0.00 | 0.00 | 39 | 1022.6 |
| 20260831025544 | 78 | 325 | 1.0 | 6.0 | 0.00 | 0.00 | 0.00 | 40 | 1022.6 |
| 20260831025043 | 78 | 259 | 1.0 | 6.0 | 0.00 | 0.00 | 0.00 | 39 | 1022.8 |
| 20260831024603 | 78 | 283 | 1.0 | 5.0 | 0.00 | 0.00 | 0.00 | 40 | 1022.9 |
| 20260831024040 | 78 | 348 | 1.0 | 7.0 | 0.00 | 0.00 | 0.00 | 39 | 1022.8 |
| 20260831023543 | 78 | 360 | 1.0 | 7.0 | 0.00 | 0.00 | 0.00 | 39 | 1023.0 |
| 20260831023105 | 78 | 360 | 2.0 | 7.0 | 0.00 | 0.00 | 0.00 | 38 | 1023.0 |
| 20260831022547 | 78 | 291 | 2.0 | 6.0 | 0.00 | 0.00 | 0.00 | 40 | 1023.1 |
| 20260831022043 | 77 | 360 | 2.0 | 6.0 | 0.00 | 0.00 | 0.00 | 41 | 1023.1 |
| 20260831021557 | 77 | 360 | 3.0 | 6.0 | 0.00 | 0.00 | 0.00 | 40 | 1023.3 |
| 20260831021043 | 76 | 0 | 2.0 | 6.0 | 0.00 | 0.00 | 0.00 | 39 | 1023.2 |
| 20260831020541 | 76 | 360 | 2.0 | 6.0 | 0.00 | 0.00 | 0.00 | 42 | 1023.3 |
| 20260831020105 | 76 | 360 | 1.0 | 6.0 | 0.00 | 0.00 | 0.00 | 39 | 1023.2 |
| 20260831015542 | 76 | 360 | 2.0 | 6.0 | 0.00 | 0.00 | 0.00 | 40 | 1023.4 |
| 20260831015042 | 75 | 360 | 1.0 | 6.0 | 0.00 | 0.00 | 0.00 | 42 | 1023.5 |
| 20260831014618 | 75 | 360 | 2.0 | 6.0 | 0.00 | 0.00 | 0.00 | 42 | 1023.5 |
| 20260831014043 | 75 | 360 | 1.0 | 6.0 | 0.00 | 0.00 | 0.00 | 42 | 1023.5 |
| 20260831013542 | 74 | 360 | 1.0 | 6.0 | 0.00 | 0.00 | 0.00 | 44 | 1023.6 |
| 20260831013058 | 72 | 360 | 1.0 | 6.0 | 0.00 | 0.00 | 0.00 | 49 | 1023.7 |
| 20260831012545 | 71 | 32 | 1.0 | 4.0 | 0.00 | 0.00 | 0.00 | 47 | 1023.8 |
| 20260831012043 | 70 | 0 | 0.0 | 4.0 | 0.00 | 0.00 | 0.00 | 49 | 1023.9 |
| 20260831011604 | 69 | 0 | 0.0 | 6.0 | 0.00 | 0.00 | 0.00 | 52 | 1023.9 |
| 20260831011042 | 68 | 36 | 0.0 | 6.0 | 0.00 | 0.00 | 0.00 | 55 | 1023.9 |
| 20260831010542 | 67 | 20 | 3.0 | 6.0 | 0.00 | 0.00 | 0.00 | 54 | 1023.9 |
| 20260831010107 | 66 | 360 | 2.0 | 5.0 | 0.00 | 0.00 | 0.00 | 56 | 1023.8 |
| 20260831005543 | 65 | 360 | 2.0 | 6.0 | 0.00 | 0.00 | 0.00 | 59 | 1023.8 |
| 20260831005044 | 65 | 360 | 2.0 | 9.0 | 0.00 | 0.00 | 0.00 | 59 | 1023.8 |
| 20260831004604 | 64 | 360 | 3.0 | 9.0 | 0.00 | 0.00 | 0.00 | 59 | 1023.7 |
| 20260831004043 | 64 | 360 | 3.0 | 5.0 | 0.00 | 0.00 | 0.00 | 60 | 1023.9 |
| 20260831003542 | 63 | 360 | 3.0 | 6.0 | 0.00 | 0.00 | 0.00 | 61 | 1023.8 |
| 20260831003105 | 63 | 360 | 3.0 | 6.0 | 0.00 | 0.00 | 0.00 | 61 | 1023.8 |
| 20260831002543 | 63 | 360 | 3.0 | 5.0 | 0.00 | 0.00 | 0.00 | 62 | 1023.8 |
| 20260831002046 | 62 | 360 | 2.0 | 5.0 | 0.00 | 0.00 | 0.00 | 62 | 1023.8 |
| 20260831001633 | 62 | 360 | 2.0 | 5.0 | 0.00 | 0.00 | 0.00 | 62 | 1023.8 |
| 20260831001043 | 62 | 360 | 2.0 | 5.0 | 0.00 | 0.00 | 0.00 | 63 | 1023.9 |
| 20260831000543 | 61 | 360 | 2.0 | 6.0 | 0.00 | 0.00 | 0.00 | 64 | 1023.8 |
| 20260831000105 | 61 | 360 | 3.0 | 6.0 | 0.00 | 0.00 | 0.00 | 65 | 1023.9 |
| 20260830235542 | 61 | 360 | 3.0 | 5.0 | 0.00 | 0.00 | 0.00 | 64 | 1023.8 |
| 20260830235046 | 61 | 360 | 2.0 | 5.0 | 0.00 | 0.00 | 0.00 | 66 | 1023.8 |
| 20260830234608 | 60 | 360 | 2.0 | 4.0 | 0.00 | 0.00 | 0.00 | 67 | 1023.8 |
| 20260830234043 | 60 | 360 | 2.0 | 4.0 | 0.00 | 0.00 | 0.00 | 67 | 1023.8 |
| 20260830233544 | 60 | 360 | 2.0 | 4.0 | 0.00 | 0.00 | 0.00 | 68 | 1023.8 |
| 20260830233131 | 60 | 360 | 1.0 | 4.0 | 0.00 | 0.00 | 0.00 | 68 | 1023.8 |
| 20260830232542 | 59 | 360 | 1.0 | 4.0 | 0.00 | 0.00 | 0.00 | 69 | 1023.7 |
| 20260830232044 | 59 | 360 | 2.0 | 4.0 | 0.00 | 0.00 | 0.00 | 69 | 1023.6 |
| 20260830231601 | 59 | 360 | 2.0 | 4.0 | 0.00 | 0.00 | 0.00 | 69 | 1023.6 |
| 20260830231043 | 59 | 360 | 1.0 | 3.0 | 0.00 | 0.00 | 0.00 | 70 | 1023.6 |
| 20260830230545 | 59 | 360 | 0.0 | 2.0 | 0.00 | 0.00 | 0.00 | 71 | 1023.6 |
| 20260830230110 | 58 | 360 | 1.0 | 2.0 | 0.00 | 0.00 | 0.00 | 71 | 1023.7 |
| 20260830225544 | 58 | 360 | 0.0 | 2.0 | 0.00 | 0.00 | 0.00 | 72 | 1023.7 |
| 20260830225043 | 58 | 0 | 0.0 | 2.0 | 0.00 | 0.00 | 0.00 | 72 | 1023.7 |
| 20260830224601 | 58 | 0 | 0.0 | 3.0 | 0.00 | 0.00 | 0.00 | 73 | 1023.6 |
| 20260830224045 | 58 | 0 | 0.0 | 3.0 | 0.00 | 0.00 | 0.00 | 73 | 1023.6 |
| 20260830223544 | 58 | 360 | 0.0 | 2.0 | 0.00 | 0.00 | 0.00 | 73 | 1023.6 |
| 20260830223058 | 58 | 360 | 1.0 | 2.0 | 0.00 | 0.00 | 0.00 | 74 | 1023.6 |
| 20260830222543 | 57 | 360 | 0.0 | 2.0 | 0.00 | 0.00 | 0.00 | 73 | 1023.6 |
| 20260830222045 | 57 | 0 | 0.0 | 1.0 | 0.00 | 0.00 | 0.00 | 74 | 1023.6 |
| 20260830221607 | 56 | 0 | 0.0 | 0.0 | 0.00 | 0.00 | 0.00 | 74 | 1023.5 |
| 20260830221046 | 56 | 0 | 0.0 | 0.0 | 0.00 | 0.00 | 0.00 | 74 | 1023.3 |
| 20260830220543 | 56 | 0 | 0.0 | 2.0 | 0.00 | 0.00 | 0.00 | 74 | 1023.2 |
| 20260830220106 | 56 | 0 | 0.0 | 3.0 | 0.00 | 0.00 | 0.00 | 74 | 1023.1 |
| 20260830215543 | 56 | 360 | 1.0 | 3.0 | 0.00 | 0.00 | 0.00 | 74 | 1023.1 |
| 20260830215046 | 56 | 360 | 1.0 | 3.0 | 0.00 | 0.00 | 0.00 | 74 | 1022.9 |
| 20260830214605 | 55 | 360 | 1.0 | 3.0 | 0.00 | 0.00 | 0.00 | 75 | 1022.8 |
| 20260830214044 | 55 | 360 | 1.0 | 3.0 | 0.00 | 0.00 | 0.00 | 75 | 1022.8 |
| 20260830213544 | 55 | 360 | 1.0 | 3.0 | 0.00 | 0.00 | 0.00 | 75 | 1022.7 |
| 20260830213104 | 55 | 360 | 1.0 | 2.0 | 0.00 | 0.00 | 0.00 | 75 | 1022.7 |
| 20260830212547 | 55 | 360 | 1.0 | 3.0 | 0.00 | 0.00 | 0.00 | 75 | 1022.7 |
| 20260830212045 | 55 | 360 | 1.0 | 3.0 | 0.00 | 0.00 | 0.00 | 76 | 1022.7 |
| 20260830211601 | 55 | 360 | 1.0 | 2.0 | 0.00 | 0.00 | 0.00 | 76 | 1022.6 |
| 20260830211044 | 55 | 360 | 1.0 | 2.0 | 0.00 | 0.00 | 0.00 | 76 | 1022.6 |
| 20260830210542 | 55 | 360 | 1.0 | 3.0 | 0.00 | 0.00 | 0.00 | 76 | 1022.7 |
| 20260830210109 | 55 | 360 | 0.0 | 3.0 | 0.00 | 0.00 | 0.00 | 75 | 1022.7 |
| 20260830205549 | 55 | 360 | 1.0 | 3.0 | 0.00 | 0.00 | 0.00 | 75 | 1022.5 |
| 20260830205046 | 56 | 360 | 1.0 | 3.0 | 0.00 | 0.00 | 0.00 | 75 | 1022.5 |
| 20260830204606 | 56 | 360 | 1.0 | 2.0 | 0.00 | 0.00 | 0.00 | 75 | 1022.4 |
| 20260830204044 | 56 | 360 | 1.0 | 2.0 | 0.00 | 0.00 | 0.00 | 75 | 1022.3 |
| 20260830203541 | 56 | 360 | 1.0 | 2.0 | 0.00 | 0.00 | 0.00 | 75 | 1022.4 |
| 20260830203106 | 56 | 360 | 1.0 | 2.0 | 0.00 | 0.00 | 0.00 | 75 | 1022.4 |
| 20260830202541 | 56 | 360 | 1.0 | 2.0 | 0.00 | 0.00 | 0.00 | 75 | 1022.3 |
| 20260830202044 | 56 | 360 | 1.0 | 2.0 | 0.00 | 0.00 | 0.00 | 75 | 1022.3 |
| 20260830201608 | 56 | 360 | 1.0 | 2.0 | 0.00 | 0.00 | 0.00 | 75 | 1022.3 |
| 20260830201044 | 56 | 360 | 1.0 | 2.0 | 0.00 | 0.00 | 0.00 | 74 | 1022.3 |
| 20260830200544 | 56 | 360 | 1.0 | 2.0 | 0.00 | 0.00 | 0.00 | 74 | 1022.3 |
| 20260830200105 | 56 | 360 | 0.0 | 2.0 | 0.00 | 0.00 | 0.00 | 74 | 1022.3 |
| 20260830195546 | 56 | 0 | 0.0 | 2.0 | 0.00 | 0.00 | 0.00 | 74 | 1022.3 |
| 20260830195044 | 56 | 360 | 1.0 | 2.0 | 0.00 | 0.00 | 0.00 | 75 | 1022.4 |
| 20260830194602 | 56 | 360 | 1.0 | 3.0 | 0.00 | 0.00 | 0.00 | 75 | 1022.3 |
| 20260830194046 | 56 | 360 | 0.0 | 3.0 | 0.00 | 0.00 | 0.00 | 75 | 1022.3 |
| 20260830193542 | 56 | 360 | 1.0 | 3.0 | 0.00 | 0.00 | 0.00 | 75 | 1022.3 |
| 20260830193054 | 56 | 360 | 1.0 | 3.0 | 0.00 | 0.00 | 0.00 | 75 | 1022.3 |
| 20260830192543 | 57 | 360 | 1.0 | 3.0 | 0.00 | 0.00 | 0.00 | 74 | 1022.4 |
| 20260830192044 | 57 | 360 | 1.0 | 3.0 | 0.00 | 0.00 | 0.00 | 74 | 1022.3 |
| 20260830191609 | 57 | 360 | 1.0 | 4.0 | 0.00 | 0.00 | 0.00 | 74 | 1022.3 |
| 20260830191045 | 57 | 360 | 1.0 | 4.0 | 0.00 | 0.00 | 0.00 | 74 | 1022.4 |
| 20260830190540 | 57 | 360 | 2.0 | 4.0 | 0.00 | 0.00 | 0.00 | 74 | 1022.3 |
| 20260830185547 | 57 | 360 | 2.0 | 4.0 | 0.00 | 0.00 | 0.00 | 73 | 1022.4 |
| 20260830185044 | 58 | 360 | 1.0 | 4.0 | 0.00 | 0.00 | 0.00 | 72 | 1022.5 |
| 20260830184556 | 58 | 360 | 2.0 | 4.0 | 0.00 | 0.00 | 0.00 | 72 | 1022.5 |
| 20260830184043 | 58 | 360 | 2.0 | 3.0 | 0.00 | 0.00 | 0.00 | 72 | 1022.5 |
| 20260830183544 | 58 | 360 | 2.0 | 3.0 | 0.00 | 0.00 | 0.00 | 72 | 1022.6 |
| 20260830183110 | 58 | 360 | 1.0 | 3.0 | 0.00 | 0.00 | 0.00 | 72 | 1022.8 |
| 20260830182543 | 58 | 360 | 1.0 | 3.0 | 0.00 | 0.00 | 0.00 | 72 | 1022.7 |
| 20260830182043 | 58 | 360 | 1.0 | 4.0 | 0.00 | 0.00 | 0.00 | 72 | 1022.7 |
| 20260830181602 | 59 | 360 | 1.0 | 4.0 | 0.00 | 0.00 | 0.00 | 71 | 1022.7 |
| 20260830181046 | 59 | 360 | 1.0 | 3.0 | 0.00 | 0.00 | 0.00 | 71 | 1022.8 |
| 20260830180542 | 59 | 360 | 1.0 | 3.0 | 0.00 | 0.00 | 0.00 | 71 | 1022.9 |
| 20260830175543 | 60 | 360 | 1.0 | 3.0 | 0.00 | 0.00 | 0.00 | 70 | 1022.9 |
| 20260830175044 | 60 | 360 | 1.0 | 3.0 | 0.00 | 0.00 | 0.00 | 69 | 1022.9 |
| 20260830174615 | 60 | 360 | 1.0 | 3.0 | 0.00 | 0.00 | 0.00 | 69 | 1023.1 |
| 20260830174042 | 60 | 360 | 2.0 | 3.0 | 0.00 | 0.00 | 0.00 | 69 | 1023.1 |
| 20260830173542 | 60 | 360 | 1.0 | 3.0 | 0.00 | 0.00 | 0.00 | 69 | 1023.2 |
| 20260830173104 | 60 | 360 | 2.0 | 4.0 | 0.00 | 0.00 | 0.00 | 69 | 1023.2 |
| 20260830172542 | 61 | 360 | 2.0 | 4.0 | 0.00 | 0.00 | 0.00 | 69 | 1023.4 |
| 20260830172042 | 61 | 360 | 1.0 | 3.0 | 0.00 | 0.00 | 0.00 | 68 | 1023.3 |
| 20260830171607 | 61 | 360 | 1.0 | 4.0 | 0.00 | 0.00 | 0.00 | 67 | 1023.3 |
| 20260830171042 | 62 | 360 | 1.0 | 5.0 | 0.00 | 0.00 | 0.00 | 67 | 1023.5 |
| 20260830170542 | 62 | 360 | 2.0 | 6.0 | 0.00 | 0.00 | 0.00 | 66 | 1023.4 |
| 20260830170058 | 62 | 360 | 3.0 | 6.0 | 0.00 | 0.00 | 0.00 | 66 | 1023.4 |
| 20260830165542 | 62 | 360 | 3.0 | 6.0 | 0.00 | 0.00 | 0.00 | 66 | 1023.4 |
| 20260830165045 | 62 | 360 | 3.0 | 5.0 | 0.00 | 0.00 | 0.00 | 67 | 1023.6 |
| 20260830164601 | 62 | 360 | 2.0 | 5.0 | 0.00 | 0.00 | 0.00 | 67 | 1023.7 |
| 20260830164042 | 61 | 360 | 2.0 | 5.0 | 0.00 | 0.00 | 0.00 | 68 | 1023.8 |
| 20260830163542 | 61 | 360 | 2.0 | 4.0 | 0.00 | 0.00 | 0.00 | 68 | 1023.8 |
| 20260830163101 | 61 | 360 | 1.0 | 4.0 | 0.00 | 0.00 | 0.00 | 68 | 1024.0 |
| 20260830162541 | 61 | 360 | 2.0 | 4.0 | 0.00 | 0.00 | 0.00 | 68 | 1024.0 |
| 20260830162042 | 62 | 360 | 2.0 | 5.0 | 0.00 | 0.00 | 0.00 | 68 | 1024.0 |
| 20260830161606 | 62 | 360 | 2.0 | 5.0 | 0.00 | 0.00 | 0.00 | 67 | 1024.1 |
| 20260830161044 | 62 | 360 | 2.0 | 5.0 | 0.00 | 0.00 | 0.00 | 67 | 1024.1 |
| 20260830160544 | 62 | 360 | 2.0 | 5.0 | 0.00 | 0.00 | 0.00 | 66 | 1024.2 |
| 20260830160112 | 62 | 360 | 2.0 | 6.0 | 0.00 | 0.00 | 0.00 | 66 | 1024.1 |
| 20260830155541 | 62 | 360 | 2.0 | 6.0 | 0.00 | 0.00 | 0.00 | 66 | 1024.1 |
| 20260830155041 | 62 | 360 | 2.0 | 5.0 | 0.00 | 0.00 | 0.00 | 67 | 1024.0 |
| 20260830154559 | 62 | 360 | 2.0 | 5.0 | 0.00 | 0.00 | 0.00 | 67 | 1024.2 |